Airfield :
LOGIN :

Register | Disclaimer

   EN    FR    IT 

 










Legend :    VFR   Marginal VFR   IFR   Intensive IFR   Very Intensive IFR
Visi :
Ceiling :
>= 8 km
>= 3000ft
5 to 8 km
1000 to 3000 ft
1500m to 5 km
500 to 1000 ft
800 to 1500m
200 to 500 ft
< 800m
< 200 ft
Symbols :   Thunderstorms  Fog  Heavy snow  Heavy precipitations  Wind > 20 kt
SIGMETs :     Misc.  Thunderstorms  Icing  Turbulence  Mountain Waves  Volcanic Ashes







- Airport Elevation : 17 ft
- IATA code : CPH


EKCH - København - Kastrup (Copenhagen)

CURRENT METAR :
  • 151150Z 16008KT CAVOK 11/09 Q1030 NOSIG

EXPIRED METARs :
  • 151120Z 16009KT CAVOK 10/09 Q1030 NOSIG
  • 151050Z 16009KT 9999 FEW047 10/09 Q1030 NOSIG
  • 151020Z 17010KT 9999 FEW004 SCT097 11/09 Q1030 NOSIG
  • 150950Z 16010KT 7000 FEW004 BKN099 10/09 Q1030 NOSIG
  • 150920Z 17008KT 8000 FEW004 BKN099 10/10 Q1030 NOSIG

TAF TAF EKCH
Valid from the 15 at 12:00 until the 16 at 12:00 UTC


151051Z 1512/1612 16010KT 9999 SCT015
TEMPO 1515/1606 BKN008
No reported NOTAMs for that airfield.



MET'MAP, your aeronautical weather chart ! - Copyright ORBIFLY December 2007 - Disclaimer

ORBIFLY MET'MAP TEAM :

Programming & Development : Alexandra Zaïnal
Concept & Development : Baudouin d'Aumeries
Co-Development & Prog : Marc-Olivier Méhu
Technical & hardware support : Manuel Goepfert

Contact : metmap@orbifly.com




SOURCES & CREDITS :

   NOAA